TimeEST,TemperatureF,Dew PointF,Humidity,Sea Level PressureIn,VisibilityMPH,Wind Direction,Wind SpeedMPH,Gust SpeedMPH,PrecipitationIn,Events,Conditions,WindDirDegrees,DateUTC
12:53 AM,-15.0,-22.0,71,30.58,10.0,Calm,Calm,-,N/A,,Clear,0,2013-02-08 05:53:00
1:53 AM,-15.0,-22.0,71,30.60,10.0,Calm,Calm,-,N/A,,Clear,0,2013-02-08 06:53:00
2:53 AM,-14.1,-20.0,75,30.61,10.0,Calm,Calm,-,N/A,,Clear,0,2013-02-08 07:53:00
3:53 AM,-11.0,-17.0,75,30.61,10.0,South,3.5,-,N/A,,Overcast,190,2013-02-08 08:53:00
4:53 AM,-8.0,-15.0,71,30.60,10.0,Calm,Calm,-,N/A,,Overcast,0,2013-02-08 09:53:00
5:53 AM,-8.0,-16.1,68,30.58,10.0,North,3.5,-,N/A,,Overcast,360,2013-02-08 10:53:00
6:53 AM,-7.1,-15.0,68,30.57,10.0,North,3.5,-,N/A,,Overcast,360,2013-02-08 11:53:00
7:53 AM,-5.1,-13.0,69,30.59,10.0,Calm,Calm,-,N/A,,Overcast,0,2013-02-08 12:53:00
8:53 AM,-2.0,-11.9,63,30.61,10.0,Calm,Calm,-,N/A,,Overcast,0,2013-02-08 13:53:00
9:53 AM,1.0,-11.0,57,30.61,10.0,Calm,Calm,-,N/A,,Overcast,0,2013-02-08 14:53:00
10:53 AM,3.9,-8.0,58,30.59,9.0,Calm,Calm,-,N/A,,Overcast,0,2013-02-08 15:53:00
11:53 AM,7.0,-8.0,51,30.55,10.0,Variable,4.6,-,N/A,,Overcast,0,2013-02-08 16:53:00
12:53 PM,8.1,-7.1,50,30.53,10.0,Calm,Calm,-,N/A,,Mostly Cloudy,0,2013-02-08 17:53:00
1:53 PM,10.0,-8.0,44,30.49,10.0,ENE,5.8,-,N/A,,Clear,60,2013-02-08 18:53:00
2:53 PM,10.0,-9.0,42,30.49,10.0,ENE,4.6,-,N/A,,Clear,70,2013-02-08 19:53:00
3:53 PM,10.9,-6.0,47,30.45,10.0,NE,8.1,-,N/A,,Clear,40,2013-02-08 20:53:00
4:53 PM,9.0,-5.1,53,30.43,10.0,NE,4.6,-,N/A,,Clear,40,2013-02-08 21:53:00
5:53 PM,9.0,-7.1,48,30.41,10.0,NE,5.8,-,N/A,,Clear,40,2013-02-08 22:53:00
6:53 PM,10.0,-4.0,53,30.40,10.0,ENE,8.1,-,N/A,,Scattered Clouds,60,2013-02-08 23:53:00
7:53 PM,10.0,-4.0,53,30.37,10.0,ENE,8.1,-,N/A,,Overcast,60,2013-02-09 00:53:00
8:53 PM,10.0,-4.0,53,30.36,10.0,NE,6.9,-,N/A,,Overcast,50,2013-02-09 01:53:00
9:53 PM,10.0,-8.0,44,30.32,10.0,ENE,9.2,21.9,N/A,,Overcast,60,2013-02-09 02:53:00
10:53 PM,10.0,-9.0,42,30.26,10.0,NNE,10.4,23.0,N/A,,Overcast,30,2013-02-09 03:53:00
11:53 PM,10.0,-11.0,38,30.22,10.0,NE,13.8,21.9,N/A,,Overcast,50,2013-02-09 04:53:00